�������l�o���
Date,Time,MP-1(��Sv/h),MP-2(��Sv/h),MP-3(��Sv/h),MP-4(��Sv/h),MP-5(��Sv/h),MP-6(��Sv/h),MP-7(��Sv/h),MP-8(��Sv/h),����,����(m/s),���J
2017/07/04,00:00,0.962,1.515,1.020,1.818,1.237,0.523,0.952,0.880,���쐼,8.6,��
2017/07/04,00:10,0.958,1.515,1.022,1.820,1.235,0.524,0.954,0.883,��,7.7,��
2017/07/04,00:20,0.961,1.521,1.019,1.822,1.235,0.525,0.952,0.883,��,7.4,��
2017/07/04,00:30,0.960,1.515,1.020,1.822,1.235,0.526,0.954,0.884,���쐼,6.9,��
2017/07/04,00:40,0.960,1.518,1.021,1.819,1.234,0.524,0.953,0.883,��,7.2,��
2017/07/04,00:50,0.960,1.520,1.020,1.822,1.236,0.524,0.955,0.883,��,5.6,��
2017/07/04,01:00,0.962,1.516,1.020,1.819,1.238,0.525,0.954,0.881,��,4.6,��
2017/07/04,01:10,0.961,1.518,1.021,1.821,1.235,0.523,0.955,0.880,��,6.3,��
2017/07/04,01:20,0.962,1.520,1.022,1.821,1.238,0.525,0.953,0.882,���쐼,6.8,��
2017/07/04,01:30,0.963,1.522,1.020,1.820,1.239,0.523,0.952,0.882,��,7.1,��
2017/07/04,01:40,0.961,1.522,1.020,1.824,1.237,0.525,0.954,0.881,���쐼,5.7,��
2017/07/04,01:50,0.961,1.518,1.022,1.823,1.236,0.525,0.955,0.883,���쐼,4.7,��
2017/07/04,02:00,0.964,1.520,1.023,1.820,1.242,0.524,0.955,0.883,��,5.3,��
2017/07/04,02:10,0.960,1.520,1.022,1.820,1.239,0.526,0.954,0.883,���쐼,4.6,��
2017/07/04,02:20,0.963,1.520,1.024,1.821,1.239,0.526,0.954,0.882,���쐼,5.8,��
2017/07/04,02:30,0.962,1.523,1.022,1.824,1.240,0.526,0.954,0.884,��,6.2,��
2017/07/04,02:40,0.960,1.520,1.022,1.824,1.241,0.526,0.955,0.884,���k��,5.8,��
2017/07/04,02:50,0.961,1.521,1.023,1.825,1.240,0.525,0.953,0.885,�k��,6.7,�L
2017/07/04,03:00,0.962,1.522,1.024,1.823,1.241,0.526,0.956,0.882,�k��,7.6,�L
2017/07/04,03:10,0.962,1.522,1.022,1.825,1.240,0.527,0.955,0.883,�k��,6.9,�L
2017/07/04,03:20,0.963,1.524,1.025,1.824,1.242,0.525,0.952,0.883,�k��,5.0,�L
2017/07/04,03:30,0.961,1.523,1.022,1.824,1.237,0.526,0.955,0.883,�k��,5.6,��
2017/07/04,03:40,0.963,1.522,1.021,1.824,1.240,0.524,0.954,0.883,�k��,4.5,�L
2017/07/04,03:50,0.958,1.523,1.020,1.822,1.240,0.525,0.953,0.883,�k��,5.5,�L
2017/07/04,04:00,0.959,1.521,1.020,1.821,1.236,0.524,0.955,0.884,���k��,4.7,�L
2017/07/04,04:10,0.958,1.519,1.021,1.821,1.239,0.525,0.955,0.884,�k��,5.0,�L
2017/07/04,04:20,0.959,1.518,1.019,1.824,1.238,0.523,0.952,0.885,�k��,5.6,�L
2017/07/04,04:30,0.956,1.519,1.020,1.824,1.238,0.524,0.953,0.882,�k��,6.0,�L
2017/07/04,04:40,0.957,1.519,1.019,1.823,1.239,0.522,0.953,0.882,�k��,7.1,�L
2017/07/04,04:50,0.957,1.519,1.021,1.824,1.237,0.523,0.954,0.884,�k��,7.4,�L
2017/07/04,05:00,0.957,1.515,1.020,1.823,1.234,0.522,0.952,0.882,�k��,7.7,�L
2017/07/04,05:10,0.954,1.514,1.015,1.819,1.233,0.520,0.950,0.880,�k��,7.7,�L
2017/07/04,05:20,0.953,1.512,1.017,1.819,1.232,0.521,0.951,0.882,�k��,6.8,�L
2017/07/04,05:30,0.952,1.511,1.014,1.818,1.228,0.520,0.951,0.879,�k��,6.5,�L
2017/07/04,05:40,0.951,1.508,1.013,1.819,1.227,0.519,0.948,0.879,�k��,5.0,�L
2017/07/04,05:50,0.952,1.506,1.014,1.817,1.227,0.519,0.950,0.877,�k��,5.1,�L
2017/07/04,06:00,0.950,1.505,1.015,1.818,1.225,0.518,0.950,0.877,�k�k��,5.1,�L
2017/07/04,06:10,0.952,1.507,1.012,1.816,1.223,0.519,0.950,0.878,�k��,5.0,�L
2017/07/04,06:20,0.951,1.507,1.014,1.815,1.228,0.519,0.948,0.878,���k��,3.9,�L
2017/07/04,06:30,0.950,1.506,1.012,1.816,1.226,0.519,0.949,0.876,��,1.5,�L
2017/07/04,06:40,0.948,1.507,1.014,1.815,1.226,0.518,0.949,0.881,���쐼,3.0,�L
2017/07/04,06:50,0.952,1.506,1.014,1.817,1.227,0.518,0.947,0.879,�k��,1.5,��
2017/07/04,07:00,0.949,1.507,1.015,1.818,1.225,0.518,0.952,0.880,��,2.8,��
2017/07/04,07:10,0.951,1.507,1.015,1.815,1.226,0.520,0.950,0.881,��,2.9,�L
2017/07/04,07:20,0.952,1.506,1.014,1.813,1.230,0.519,0.949,0.879,�k�k��,1.5,�L
2017/07/04,07:30,0.953,1.509,1.015,1.816,1.229,0.520,0.952,0.883,�k�k��,2.3,�L
2017/07/04,07:40,0.945,1.509,1.015,1.816,1.229,0.519,0.951,0.881,�k,3.0,�L
2017/07/04,07:50,0.949,1.507,1.015,1.814,1.229,0.519,0.950,0.880,�k,2.6,�L
2017/07/04,08:00,0.948,1.506,1.014,1.817,1.229,0.520,0.952,0.880,�k�k��,2.6,�L
2017/07/04,08:10,0.951,1.507,1.014,1.817,1.229,0.521,0.951,0.879,�k�k��,2.3,�L
2017/07/04,08:20,0.951,1.510,1.012,1.817,1.230,0.519,0.951,0.881,-,CALM,��
2017/07/04,08:30,0.952,1.509,1.015,1.816,1.231,0.518,0.951,0.881,��쓌,1.2,��
2017/07/04,08:40,0.950,1.509,1.015,1.815,1.229,0.519,0.949,0.880,��쓌,3.0,��
2017/07/04,08:50,0.951,1.507,1.013,1.816,1.232,0.520,0.951,0.879,��쓌,3.3,�L
2017/07/04,09:00,0.952,1.510,1.010,1.816,1.232,0.517,0.952,0.882,�쓌,2.8,�L
2017/07/04,09:10,0.950,1.509,1.009,1.818,1.232,0.519,0.950,0.881,��쓌,2.9,�L
2017/07/04,09:20,0.951,1.508,1.012,1.819,1.230,0.518,0.951,0.880,�쓌,2.2,�L
2017/07/04,09:30,0.951,1.509,1.014,1.817,1.230,0.518,0.952,0.880,��쓌,2.6,�L
2017/07/04,09:40,0.950,1.508,1.012,1.816,1.228,0.519,0.951,0.882,��쓌,1.5,�L
2017/07/04,09:50,0.952,1.509,1.013,1.817,1.230,0.520,0.951,0.880,��쓌,1.7,�L
2017/07/04,10:00,0.953,1.507,1.007,1.816,1.231,0.518,0.952,0.880,�쓌,2.6,�L
2017/07/04,10:10,0.953,1.509,1.013,1.818,1.229,0.519,0.950,0.879,���쓌,2.0,�L
2017/07/04,10:20,0.955,1.509,1.010,1.818,1.234,0.518,0.949,0.881,��쓌,2.0,�L
2017/07/04,10:30,0.953,1.511,1.009,1.819,1.231,0.519,0.951,0.879,�쓌,1.5,�L
2017/07/04,10:40,0.952,1.509,1.013,1.816,1.231,0.519,0.951,0.880,��,1.4,�L
2017/07/04,10:50,0.954,1.507,1.011,1.816,1.231,0.520,0.951,0.878,��쐼,1.4,�L
2017/07/04,11:00,0.954,1.510,1.010,1.816,1.230,0.519,0.951,0.878,�쐼,1.4,�L
2017/07/04,11:10,0.952,1.506,1.010,1.812,1.226,0.520,0.951,0.877,�쓌,0.9,�L
2017/07/04,11:20,0.951,1.504,1.008,1.814,1.228,0.519,0.949,0.878,��쓌,1.2,�L
2017/07/04,11:30,0.948,1.500,1.008,1.813,1.227,0.518,0.950,0.878,�쓌,2.6,�L
2017/07/04,11:40,0.949,1.501,1.007,1.813,1.225,0.519,0.950,0.877,�쓌,3.2,�L
2017/07/04,11:50,0.948,1.503,1.009,1.812,1.226,0.519,0.948,0.879,��쓌,3.3,�L
2017/07/04,12:00,0.947,1.501,1.007,1.810,1.225,0.518,0.949,0.877,��쓌,4.1,�L
2017/07/04,12:10,0.947,1.499,1.009,1.812,1.223,0.518,0.949,0.878,��,3.2,�L
2017/07/04,12:20,0.947,1.500,1.010,1.814,1.227,0.518,0.949,0.879,��,2.8,�L
2017/07/04,12:30,0.949,1.499,1.008,1.814,1.224,0.520,0.948,0.877,��,2.5,�L
2017/07/04,12:40,0.948,1.499,1.009,1.812,1.225,0.521,0.950,0.878,��쓌,2.6,�L
2017/07/04,12:50,0.947,1.502,1.009,1.814,1.226,0.519,0.946,0.878,��쓌,2.3,�L
2017/07/04,13:00,0.950,1.502,1.008,1.811,1.226,0.518,0.949,0.879,��쓌,3.7,�L
2017/07/04,13:10,0.950,1.502,1.008,1.808,1.225,0.518,0.950,0.878,��쓌,5.2,�L
2017/07/04,13:20,0.951,1.499,1.009,1.810,1.225,0.519,0.949,0.876,��쓌,5.1,�L
2017/07/04,13:30,0.950,1.500,1.008,1.809,1.226,0.521,0.950,0.877,��,5.2,�L
2017/07/04,13:40,0.949,1.500,1.011,1.810,1.227,0.519,0.947,0.878,��쓌,4.9,�L
2017/07/04,13:50,0.949,1.498,1.008,1.811,1.226,0.520,0.948,0.876,�쓌,3.7,�L
2017/07/04,14:00,0.952,1.498,1.006,1.809,1.225,0.522,0.949,0.879,�쓌,3.9,�L
2017/07/04,14:10,0.950,1.498,1.008,1.811,1.227,0.521,0.947,0.877,��쓌,4.4,�L
2017/07/04,14:20,0.950,1.499,1.009,1.810,1.226,0.522,0.948,0.878,��쓌,3.8,�L
2017/07/04,14:30,0.950,1.498,0.995,1.810,1.225,0.521,0.949,0.876,��,2.0,�L
2017/07/04,14:40,0.948,1.499,1.010,1.811,1.225,0.522,0.948,0.879,��,2.9,�L
2017/07/04,14:50,0.949,1.502,1.006,1.809,1.228,0.522,0.951,0.877,��,4.6,�L
2017/07/04,15:00,0.951,1.500,1.011,1.810,1.226,0.523,0.948,0.876,��,4.9,�L
2017/07/04,15:10,0.950,1.500,1.007,1.812,1.224,0.523,0.948,0.878,��,5.3,�L
2017/07/04,15:20,0.949,1.502,1.002,1.806,1.224,0.523,0.946,0.875,��,5.6,�L
2017/07/04,15:30,0.948,1.498,1.002,1.808,1.221,0.523,0.946,0.876,��,5.3,�L
2017/07/04,15:40,0.947,1.496,1.003,1.806,1.222,0.523,0.946,0.876,��,5.5,�L
2017/07/04,15:50,0.945,1.497,1.004,1.806,1.220,0.522,0.947,0.876,��,6.3,�L
2017/07/04,16:00,0.947,1.494,1.002,1.805,1.222,0.524,0.947,0.877,��,6.2,�L
2017/07/04,16:10,0.947,1.495,1.003,1.802,1.221,0.522,0.948,0.876,��,6.9,�L
2017/07/04,16:20,0.945,1.497,1.002,1.802,1.221,0.522,0.948,0.876,��,6.9,�L
2017/07/04,16:30,0.946,1.494,1.002,1.806,1.223,0.522,0.948,0.877,��,5.9,�L
2017/07/04,16:40,0.947,1.497,1.003,1.804,1.222,0.524,0.948,0.876,��쐼,4.3,�L
2017/07/04,16:50,0.950,1.496,1.004,1.805,1.223,0.522,0.948,0.874,��쐼,3.5,�L
2017/07/04,17:00,0.948,1.500,1.003,1.802,1.223,0.522,0.947,0.874,��쐼,2.5,�L
2017/07/04,17:10,0.948,1.497,1.006,1.806,1.225,0.523,0.948,0.876,��쐼,3.0,�L
2017/07/04,17:20,0.947,1.497,1.007,1.805,1.221,0.522,0.947,0.875,��,3.4,�L
2017/07/04,17:30,0.945,1.496,1.005,1.802,1.222,0.521,0.947,0.875,��,3.6,�L
2017/07/04,17:40,0.949,1.496,1.004,1.806,1.223,0.522,0.948,0.878,��쐼,4.1,�L
2017/07/04,17:50,0.948,1.495,1.004,1.802,1.222,0.523,0.947,0.877,��쐼,4.8,�L
2017/07/04,18:00,0.946,1.496,1.003,1.802,1.220,0.523,0.949,0.876,��쐼,4.2,�L
2017/07/04,18:10,0.947,1.492,1.000,1.802,1.221,0.522,0.946,0.875,��,4.0,�L
2017/07/04,18:20,0.946,1.491,1.003,1.801,1.222,0.522,0.946,0.875,��,4.0,�L
2017/07/04,18:30,0.946,1.491,1.003,1.798,1.219,0.522,0.946,0.875,��쐼,4.3,�L
2017/07/04,18:40,0.944,1.489,1.000,1.799,1.216,0.523,0.947,0.874,��,4.9,�L
2017/07/04,18:50,0.943,1.485,1.000,1.797,1.218,0.522,0.945,0.876,��,3.8,�L
2017/07/04,19:00,0.942,1.486,1.001,1.794,1.215,0.521,0.946,0.876,��,4.0,�L
2017/07/04,19:10,0.942,1.487,0.999,1.795,1.216,0.520,0.946,0.875,��,3.5,�L
2017/07/04,19:20,0.942,1.483,1.000,1.792,1.217,0.522,0.947,0.874,��,5.1,�L
2017/07/04,19:30,0.942,1.484,1.000,1.793,1.216,0.522,0.943,0.876,��,5.2,�L
2017/07/04,19:40,0.942,1.484,1.000,1.790,1.216,0.522,0.947,0.875,��,5.5,�L
2017/07/04,19:50,0.942,1.486,1.000,1.793,1.218,0.521,0.944,0.873,��,6.5,�L
2017/07/04,20:00,0.944,1.485,0.998,1.793,1.213,0.522,0.944,0.874,��,4.0,�L
2017/07/04,20:10,0.940,1.485,0.998,1.791,1.215,0.521,0.945,0.873,��,4.2,�L
2017/07/04,20:20,0.943,1.482,0.998,1.792,1.213,0.521,0.942,0.874,��,5.1,�L
2017/07/04,20:30,0.940,1.484,0.998,1.791,1.213,0.519,0.944,0.873,��,5.6,�L
2017/07/04,20:40,0.940,1.481,0.994,1.792,1.214,0.520,0.943,0.874,��,5.8,�L
2017/07/04,20:50,0.938,1.483,0.998,1.789,1.212,0.520,0.942,0.874,��,6.2,�L
2017/07/04,21:00,0.940,1.481,0.996,1.786,1.212,0.520,0.943,0.873,��,6.4,�L
2017/07/04,21:10,0.940,1.482,0.997,1.788,1.215,0.520,0.944,0.873,��,6.1,�L
2017/07/04,21:20,0.939,1.481,0.998,1.786,1.210,0.520,0.943,0.873,��,6.1,�L
2017/07/04,21:30,0.941,1.482,0.998,1.789,1.216,0.519,0.942,0.873,��,6.6,�L
2017/07/04,21:40,0.941,1.479,0.996,1.788,1.212,0.519,0.942,0.874,��,6.8,�L
2017/07/04,21:50,0.939,1.479,0.997,1.787,1.212,0.518,0.942,0.872,��,6.3,�L
2017/07/04,22:00,0.940,1.479,0.997,1.786,1.216,0.518,0.941,0.870,��,5.3,�L
2017/07/04,22:10,0.940,1.482,0.997,1.791,1.211,0.519,0.940,0.872,��쐼,4.5,�L
2017/07/04,22:20,0.939,1.480,0.996,1.784,1.210,0.518,0.940,0.872,��,6.2,�L
2017/07/04,22:30,0.940,1.483,0.996,1.787,1.212,0.520,0.942,0.872,��,6.4,�L
2017/07/04,22:40,0.941,1.485,0.997,1.786,1.211,0.518,0.941,0.873,��,7.8,�L
2017/07/04,22:50,0.941,1.483,0.996,1.787,1.210,0.518,0.942,0.874,��,9.2,�L
2017/07/04,23:00,0.940,1.482,0.999,1.786,1.214,0.518,0.942,0.875,��,7.9,��
2017/07/04,23:10,0.943,1.485,0.997,1.787,1.212,0.519,0.942,0.875,��,7.6,�L
2017/07/04,23:20,0.945,1.486,0.998,1.786,1.212,0.520,0.944,0.875,��,7.8,�L
2017/07/04,23:30,0.941,1.485,0.998,1.788,1.212,0.519,0.944,0.874,��,6.6,�L
2017/07/04,23:40,0.944,1.489,1.000,1.787,1.215,0.519,0.944,0.875,��,6.2,�L
2017/07/04,23:50,0.944,1.489,0.998,1.789,1.214,0.519,0.944,0.874,��,5.1,�L
